Location: Gu�tanj
(46.5431°N, 14.9692°E)
Time: 12:13:36
(UTC+00:00)

Cosmos 2366 rocket - Pass Details

Date: 16 June 2021
Orbit: 955 x 997 km, 82.9° (Epoch: 30 July)

Event Time Altitude Azimuth Distance (km) Brightness Sun altitude
Rises 19:33:07 0° 337° (NNW) 3,718 8.5 -5.8°
Reaches altitude 10° 19:36:38 10° 318° (NW) 2,769 8.2 -6.2°
Maximum altitude 19:40:21 16° 282° (WNW) 2,327 6.9 -6.7°
Drops below altitude 10° 19:44:03 10° 245° (WSW) 2,762 6.6 -7.1°
Sets 19:47:35 0° 226° (SW) 3,706 7.0 -7.6°
